• In India
  • List of Countries
  • For 7 days
  • Water Temperature
  • Satellite Maps
  • Weather Map
  • Weather Widgets
  • user-avatar
    Login

    Hourly Weather Sydney

    Today, 25 November, Saturday

    Time Temperature Precipitation Wind Pressure Humidity
    00:00 +20°C° 0 mm 3 mps 762 mmHg 79%
    01:00 +19°C° 0 mm 2 mps 762 mmHg 81%
    02:00 +19°C° 0 mm 2 mps 762 mmHg 82%
    03:00 +18°C° 0 mm 2 mps 762 mmHg 84%
    04:00 +18°C° 0 mm 2 mps 762 mmHg 85%
    05:00 +20°C° 0 mm 2 mps 762 mmHg 77%
    06:00 +23°C° 0 mm 1 mps 762 mmHg 69%
    07:00 +25°C° 0 mm 1 mps 762 mmHg 62%
    08:00 +27°C° 0 mm 2 mps 762 mmHg 53%
    09:00 +29°C° 0 mm 3 mps 762 mmHg 45%
    10:00 +31°C° 0 mm 3 mps 762 mmHg 37%
    11:00 +32°C° 0 mm 4 mps 762 mmHg 35%
    12:00 +33°C° 0 mm 5 mps 762 mmHg 33%
    13:00 +33°C° 0 mm 5 mps 761 mmHg 32%
    14:00 +32°C° 0 mm 5 mps 761 mmHg 35%
    15:00 +32°C° 0 mm 5 mps 761 mmHg 38%
    16:00 +30°C° 0 mm 6 mps 760 mmHg 41%
    17:00 +28°C° 0 mm 5 mps 761 mmHg 51%
    18:00 +25°C° 0 mm 4 mps 761 mmHg 61%
    19:00 +22°C° 0 mm 4 mps 761 mmHg 71%
    20:00 +21°C° 0 mm 4 mps 762 mmHg 77%
    21:00 +20°C° 0 mm 3 mps 762 mmHg 84%
    22:00 +19°C° 0 mm 3 mps 763 mmHg 90%
    23:00 +19°C° 0 mm 2 mps 762 mmHg 92%

    Tomorrow, 26 November, Sunday

    Time Temperature Precipitation Wind Pressure Humidity
    00:00 +19°C° 0 mm 2 mps 762 mmHg 93%
    01:00 +18°C° 0 mm 2 mps 762 mmHg 95%
    02:00 +19°C° 0 mm 1 mps 761 mmHg 95%
    03:00 +19°C° 0 mm 1 mps 761 mmHg 95%
    04:00 +19°C° 0 mm 1 mps 761 mmHg 94%
    05:00 +21°C° 0 mm 1 mps 761 mmHg 89%
    06:00 +22°C° 0 mm 1 mps 761 mmHg 83%
    07:00 +23°C° 0 mm 1 mps 762 mmHg 78%
    08:00 +25°C° 0 mm 2 mps 762 mmHg 67%
    09:00 +27°C° 0 mm 2 mps 762 mmHg 56%
    10:00 +30°C° 0 mm 3 mps 762 mmHg 45%
    11:00 +32°C° 0 mm 4 mps 761 mmHg 42%
    12:00 +33°C° 0 mm 4 mps 760 mmHg 38%
    13:00 +34°C° 0 mm 5 mps 760 mmHg 35%
    14:00 +33°C° 0 mm 6 mps 760 mmHg 39%
    15:00 +32°C° 0 mm 6 mps 759 mmHg 44%
    16:00 +32°C° 0 mm 7 mps 759 mmHg 49%
    17:00 +29°C° 0 mm 7 mps 759 mmHg 58%
    18:00 +27°C° 0 mm 7 mps 759 mmHg 68%
    19:00 +24°C° 0 mm 7 mps 760 mmHg 77%
    20:00 +23°C° 0.1 mm 6 mps 760 mmHg 80%
    21:00 +22°C° 0.1 mm 6 mps 760 mmHg 83%
    22:00 +22°C° 0.1 mm 5 mps 761 mmHg 87%
    23:00 +21°C° 0 mm 5 mps 760 mmHg 88%

    Day after tomorrow, 27 November, Monday

    Time Temperature Precipitation Wind Pressure Humidity
    00:00 +21°C° 0 mm 4 mps 760 mmHg 90%
    01:00 +21°C° 0 mm 4 mps 760 mmHg 91%
    02:00 +21°C° 0 mm 4 mps 760 mmHg 91%
    03:00 +21°C° 0 mm 4 mps 759 mmHg 91%
    04:00 +21°C° 0 mm 4 mps 759 mmHg 91%
    05:00 +21°C° 0 mm 4 mps 760 mmHg 88%
    06:00 +22°C° 0 mm 4 mps 760 mmHg 85%
    07:00 +22°C° 0 mm 4 mps 761 mmHg 82%
    08:00 +25°C° 0 mm 4 mps 761 mmHg 74%
    09:00 +27°C° 0 mm 4 mps 761 mmHg 66%
    10:00 +29°C° 0 mm 4 mps 761 mmHg 58%
    11:00 +29°C° 0.3 mm 4 mps 761 mmHg 58%
    12:00 +29°C° 0.3 mm 4 mps 760 mmHg 58%
    13:00 +30°C° 0.3 mm 5 mps 760 mmHg 57%
    14:00 +28°C° 1.2 mm 4 mps 760 mmHg 66%
    15:00 +26°C° 1.2 mm 4 mps 760 mmHg 75%
    16:00 +25°C° 1.2 mm 4 mps 760 mmHg 83%
    17:00 +23°C° 0.6 mm 4 mps 760 mmHg 85%
    18:00 +23°C° 0.6 mm 5 mps 761 mmHg 86%
    19:00 +22°C° 0.6 mm 5 mps 761 mmHg 88%
    20:00 +22°C° 0.7 mm 5 mps 761 mmHg 89%
    21:00 +22°C° 0.7 mm 5 mps 761 mmHg 90%
    22:00 +22°C° 0.7 mm 5 mps 762 mmHg 91%
    23:00 +21°C° 0.9 mm 5 mps 761 mmHg 92%

    28 November, Tuesday

    Time Temperature Precipitation Wind Pressure Humidity
    00:00 +21°C° 0.9 mm 5 mps 761 mmHg 93%
    01:00 +21°C° 0.9 mm 5 mps 760 mmHg 94%
    02:00 +20°C° 0.8 mm 5 mps 760 mmHg 95%
    03:00 +20°C° 0.8 mm 4 mps 760 mmHg 95%
    04:00 +20°C° 0.8 mm 4 mps 760 mmHg 95%
    05:00 +21°C° 1 mm 4 mps 761 mmHg 92%
    06:00 +22°C° 1 mm 4 mps 761 mmHg 89%
    07:00 +23°C° 1 mm 4 mps 762 mmHg 85%
    08:00 +26°C° 0.3 mm 4 mps 762 mmHg 77%
    09:00 +27°C° 0.3 mm 4 mps 761 mmHg 69%
    10:00 +29°C° 0.3 mm 4 mps 761 mmHg 60%
    11:00 +30°C° 0.4 mm 4 mps 761 mmHg 57%
    12:00 +32°C° 0.4 mm 5 mps 761 mmHg 54%
    13:00 +33°C° 0.4 mm 6 mps 760 mmHg 52%
    14:00 +32°C° 0.6 mm 6 mps 760 mmHg 55%
    15:00 +30°C° 0.6 mm 6 mps 760 mmHg 59%
    16:00 +30°C° 0.6 mm 6 mps 760 mmHg 63%
    17:00 +28°C° 0.7 mm 6 mps 761 mmHg 71%
    18:00 +26°C° 0.7 mm 6 mps 762 mmHg 79%
    19:00 +23°C° 0.7 mm 5 mps 762 mmHg 88%
    20:00 +23°C° 0.8 mm 5 mps 762 mmHg 90%
    21:00 +22°C° 0.8 mm 5 mps 763 mmHg 92%
    22:00 +22°C° 0.8 mm 5 mps 763 mmHg 94%
    23:00 +22°C° 0.5 mm 5 mps 763 mmHg 94%

    29 November, Wednesday

    Time Temperature Precipitation Wind Pressure Humidity
    00:00 +22°C° 0.5 mm 4 mps 762 mmHg 94%
    01:00 +22°C° 0.5 mm 4 mps 762 mmHg 94%
    02:00 +22°C° 0.2 mm 4 mps 762 mmHg 94%
    03:00 +22°C° 0.2 mm 4 mps 762 mmHg 93%
    04:00 +22°C° 0.2 mm 4 mps 763 mmHg 93%
    05:00 +22°C° 0.3 mm 4 mps 763 mmHg 91%
    06:00 +23°C° 0.3 mm 4 mps 763 mmHg 89%
    07:00 +23°C° 0.3 mm 4 mps 764 mmHg 87%
    08:00 +25°C° 0.2 mm 4 mps 764 mmHg 82%
    09:00 +26°C° 0.2 mm 4 mps 764 mmHg 77%
    10:00 +27°C° 0.2 mm 4 mps 763 mmHg 72%
    11:00 +27°C° 0.2 mm 4 mps 763 mmHg 70%
    12:00 +28°C° 0.2 mm 5 mps 762 mmHg 68%
    13:00 +28°C° 0.2 mm 5 mps 762 mmHg 66%
    14:00 +28°C° 0.1 mm 5 mps 762 mmHg 67%
    15:00 +28°C° 0.1 mm 6 mps 762 mmHg 67%
    16:00 +28°C° 0.1 mm 6 mps 762 mmHg 67%
    17:00 +27°C° 0.1 mm 5 mps 762 mmHg 72%
    18:00 +25°C° 0.1 mm 5 mps 763 mmHg 77%
    19:00 +23°C° 0.1 mm 5 mps 763 mmHg 82%
    20:00 +23°C° 0 mm 5 mps 763 mmHg 84%
    21:00 +22°C° 0 mm 5 mps 763 mmHg 86%
    22:00 +22°C° 0 mm 4 mps 763 mmHg 88%
    23:00 +22°C° 0 mm 4 mps 763 mmHg 89%

    30 November, Thursday

    Time Temperature Precipitation Wind Pressure Humidity
    00:00 +22°C° 0 mm 4 mps 763 mmHg 90%
    01:00 +22°C° 0 mm 4 mps 762 mmHg 91%
    02:00 +21°C° 0.1 mm 4 mps 762 mmHg 92%
    03:00 +21°C° 0.1 mm 4 mps 762 mmHg 92%
    04:00 +21°C° 0.1 mm 4 mps 762 mmHg 93%
    05:00 +22°C° 0 mm 4 mps 762 mmHg 89%
    06:00 +22°C° 0 mm 4 mps 763 mmHg 85%
    07:00 +23°C° 0 mm 4 mps 763 mmHg 81%
    08:00 +26°C° 0 mm 4 mps 763 mmHg 73%
    09:00 +27°C° 0 mm 5 mps 763 mmHg 66%
    10:00 +29°C° 0 mm 5 mps 762 mmHg 58%
    11:00 +29°C° 0 mm 5 mps 762 mmHg 57%
    12:00 +29°C° 0 mm 6 mps 761 mmHg 57%
    13:00 +30°C° 0 mm 6 mps 761 mmHg 56%
    14:00 +29°C° 0.2 mm 6 mps 761 mmHg 61%
    15:00 +28°C° 0.2 mm 6 mps 761 mmHg 65%
    16:00 +27°C° 0.2 mm 6 mps 760 mmHg 70%
    17:00 +26°C° 0.1 mm 6 mps 761 mmHg 74%
    18:00 +24°C° 0.1 mm 6 mps 761 mmHg 79%
    19:00 +23°C° 0.1 mm 6 mps 761 mmHg 83%
    20:00 +23°C° 0 mm 6 mps 761 mmHg 84%
    21:00 +23°C° 0 mm 5 mps 761 mmHg 86%
    22:00 +22°C° 0 mm 5 mps 761 mmHg 87%
    23:00 +22°C° 0 mm 5 mps 760 mmHg 89%
    Show more